Погода в Прибытковском

Россия / Липецкая область     52°25′06″N   39°49′53″E
темп.,
°C
ветер,
м/с
пор.,
м/с
влажн.,
%
обл.,
%
осадки,
мм/ч
давл.,
гПа
погр.,
м
20 сентября, пн
пн2000:00+11юв91761100 0.8 1011859
03:00+10юв81685100 3.3 1011764
06:00+10юв71390100 0.1 1011584
09:00+10вюв61191100 0.1 1011487
12:00+11вюв71086100 0.0 1011565
15:00+11вюв61189100 0.6 1011546
18:00+9в71395100 6.8 1011432
21:00+10вюв61194100 7.3 1012561
21 сентября, вт
вт2100:00+10юв51194100 0.1 1011534
03:00+10ююв3694100 0.2 1011345
06:00+9ю2291100 0.0 101273
09:00+10ю2381100 0.0 1012230
12:00+12ю2470100 0.0 1013623
15:00+13ю236097 0.0 10121065
18:00+11з3480100 0.1 1011130
21:00+10юз1187100 0.7 101150
22 сентября, ср
ср2200:00+9зсз239361 0.0 1011103
03:00+9зсз2492100 0.1 1010185
06:00+9зсз3594100 1.5 1010241
09:00+8з4693100 4.5 1010373
12:00+8з4690100 0.8 1011510
15:00+8зюз3589100 1.3 1012339
18:00+8юз2486100 0.0 1013237
21:00+8ююз2588100 0.1 1014238
23 сентября, чт
чт2300:00+7ююз2591100 0.2 1014209
03:00+7ююз2392100 0.3 1014120
06:00+7ю2492100 0.1 1015158
09:00+8ююв2485100 0.1 1015347
12:00+10ю3471100 0.1 1014954
15:00+11ююз3466100 0.3 1014967
18:00+9зюз117229 0.1 101311
21:00+7юз227797 0.1 101320
24 сентября, пт
пт2400:00+7юз228345 0.0 101330
03:00+5зсз11908 0.0 101210
06:00+4юз22925 0.0 101217
09:00+8ю237440 0.0 1011415
12:00+12ююз465194 0.0 10091640
15:00+12ююз5750100 0.0 10071668
18:00+11ююв4854100 0.0 1006441
21:00+10ююз61167100 0.2 10051216